This demonstration page uses our WeatherBlox Daily Observations layout. Learn more.

Left ArrowRight Arrow

39.51506, -84.39828

Hourly Observations for September 7, 2016

Temp ( °F °C ) Dew Point ( °F °C ) Humidity (%) Winds ( mph kmh ) Pressure ( in mb ) Visibility ( mi km ) Precip ( " mm )
12:15 am 00:15 Clear N/A N/A N/A N N/A N/A 10 16 N/A
12:35 am 00:35 Clear N/A N/A N/A N N/A N/A 10 16 N/A
12:55 am 00:55 Clear N/A N/A N/A N N/A N/A 10 16 N/A
1:15 am 01:15 Clear N/A N/A N/A N N/A N/A 7 11 N/A
1:35 am 01:35 Hazy N/A N/A N/A N N/A N/A 4 6 N/A
1:55 am 01:55 Hazy N/A N/A N/A N N/A N/A 4 6 N/A
2:15 am 02:15 Clear N/A N/A N/A N N/A N/A 7 11 N/A
2:35 am 02:35 Mostly Cloudy with Mist and Fog N/A N/A N/A N N/A N/A 2 3 N/A
2:55 am 02:55 Hazy N/A N/A N/A N N/A N/A 5 8 N/A
3:15 am 03:15 Clear N/A N/A N/A N N/A N/A 7 11 N/A
3:35 am 03:35 Clear with Mist and Fog N/A N/A N/A N N/A N/A 3 5 N/A
3:55 am 03:55 Hazy N/A N/A N/A N N/A N/A 4 6 N/A
4:15 am 04:15 Clear with Mist and Fog N/A N/A N/A SW 3 6 N/A 3 4 N/A
4:35 am 04:35 Clear N/A N/A N/A S 3 6 N/A 10 16 N/A
4:55 am 04:55 Clear N/A N/A N/A S 3 6 N/A 10 16 N/A
5:15 am 05:15 Clear N/A N/A N/A N N/A N/A 10 16 N/A
5:35 am 05:35 Hazy N/A N/A N/A N N/A N/A 4 6 N/A
5:55 am 05:55 Mostly Cloudy with Mist and Fog N/A N/A N/A N N/A N/A 2 2 N/A
6:15 am 06:15 Hazy N/A N/A N/A N N/A N/A 5 8 N/A
6:35 am 06:35 Hazy N/A N/A N/A N N/A N/A 5 8 N/A
6:55 am 06:55 Clear N/A N/A N/A N N/A N/A 7 11 N/A
7:15 am 07:15 Mostly Cloudy with Mist and Fog N/A N/A N/A N N/A N/A 2 2 N/A
7:35 am 07:35 Hazy N/A N/A N/A N N/A N/A 4 6 N/A
7:55 am 07:55 Hazy N/A N/A N/A N N/A N/A 5 8 N/A
8:15 am 08:15 Sunny N/A N/A N/A N N/A N/A 7 11 N/A
8:35 am 08:35 Sunny N/A N/A N/A SSW 6 9 N/A 10 16 N/A
8:55 am 08:55 Sunny N/A N/A N/A SSW 5 7 N/A 10 16 N/A
9:15 am 09:15 Sunny N/A N/A N/A SSW 5 7 N/A 10 16 N/A
9:35 am 09:35 Sunny 74 23.6 68 19.9 80 80 SSW 7 11 30.15 1021 10 16 N/A
9:55 am 09:55 Sunny N/A N/A N/A SSW 7 11 N/A 10 16 N/A
10:15 am 10:15 Sunny N/A N/A N/A SSW 7 11 N/A 10 16 N/A
10:35 am 10:35 Sunny N/A N/A N/A WSW 9 15 N/A 10 16 N/A
10:55 am 10:55 Sunny N/A N/A N/A SW 8 13 N/A 10 16 N/A
11:15 am 11:15 Sunny N/A N/A N/A SW 8 13 N/A 10 16 N/A
11:35 am 11:35 Sunny N/A N/A N/A SW 8 13 N/A 10 16 N/A
11:55 am 11:55 Sunny N/A N/A N/A SW 9 15 N/A 10 16 N/A
12:15 pm 12:15 Partly Cloudy N/A N/A N/A SW 9 15 N/A 10 16 N/A
12:35 pm 12:35 Partly Cloudy N/A N/A N/A SW 14 22 N/A 10 16 N/A
12:55 pm 12:55 Mostly Cloudy N/A N/A N/A SSW 10 17 N/A 10 16 N/A
1:15 pm 13:15 Mostly Cloudy N/A N/A N/A SW 9 15 N/A 7 11 N/A
1:35 pm 13:35 Partly Cloudy with Heavy Rain 96 35.7 71 21.6 44 44 SW 6 9 30.09 1019 10 16 N/A
1:55 pm 13:55 Partly Cloudy with Light Rain 90 32.1 68 20.2 49 49 SW 14 22 30.06 1018 10 16 N/A
2:15 pm 14:15 Partly Cloudy 90 32.1 69 20.4 50 50 WSW 7 11 30.06 1018 10 16 N/A
2:35 pm 14:35 Partly Cloudy 90 32.1 67 19.7 48 48 WSW 9 15 30.06 1018 10 16 N/A
2:55 pm 14:55 Partly Cloudy 90 32.1 66 19.1 46 46 WSW 12 19 30.06 1018 10 16 N/A
3:15 pm 15:15 Partly Cloudy 90 32.2 66 19.1 46 46 SSW 13 20 30.03 1017 10 16 N/A
3:35 pm 15:35 Partly Cloudy 90 32.1 66 18.9 46 46 SSW 15 24 30.03 1017 10 16 N/A
3:55 pm 15:55 Partly Cloudy 90 32.1 66 18.8 45 45 SW 13 20 30.03 1017 10 16 N/A
4:15 pm 16:15 Sunny 91 32.8 65 18.4 42 42 WSW 10 17 30.03 1017 10 16 N/A
4:35 pm 16:35 Partly Cloudy 91 32.7 66 18.9 44 44 SW 12 19 30.03 1017 10 16 N/A
4:55 pm 16:55 Sunny 90 32.1 64 17.9 43 43 SW 13 20 30.03 1017 10 16 N/A
5:15 pm 17:15 Sunny 90 32.1 64 17.7 42 42 SW 10 17 30.03 1017 10 16 N/A
5:35 pm 17:35 Sunny 90 32.1 65 18.1 43 43 SW 12 19 30.00 1016 10 16 N/A
5:55 pm 17:55 Sunny 90 32.1 64 18 43 43 SW 13 20 30.00 1016 10 16 N/A
6:35 pm 18:35 Sunny 90 32.1 66 19 46 46 SW 9 15 30.00 1016 10 16 N/A
6:55 pm 18:55 Sunny 90 32.1 66 18.9 46 46 SW 10 17 30.00 1016 10 16 N/A
7:15 pm 19:15 Sunny 90 32.1 67 19.3 47 47 SW 8 13 30.00 1016 10 16 N/A
7:35 pm 19:35 Sunny 87 30.5 67 19.5 52 52 SW 6 9 30.00 1016 10 16 N/A
7:55 pm 19:55 Sunny 83 28.1 66 18.8 57 57 WSW 6 9 30.03 1017 10 16 N/A
8:15 pm 20:15 Clear 81 27.4 66 19.1 61 61 SW 5 7 30.03 1017 10 16 N/A
8:35 pm 20:35 Clear 80 26.5 66 18.9 63 63 SW 3 6 30.03 1017 10 16 N/A
8:55 pm 20:55 Clear 80 26.8 67 19.2 63 63 SSW 3 6 30.03 1017 10 16 N/A
9:15 pm 21:15 Clear 78 25.4 67 19.3 69 69 N N/A 30.03 1017 10 16 N/A
9:35 pm 21:35 Clear 77 25.1 69 20.7 77 77 SW 3 6 30.03 1017 10 16 N/A
9:55 pm 21:55 Clear 76 24.7 69 20.7 79 79 SW 3 6 30.03 1017 10 16 N/A
10:15 pm 22:15 Clear 74 23.6 68 19.8 79 79 SW 3 6 30.03 1017 10 16 N/A
10:35 pm 22:35 Clear 74 23.6 67 19.5 78 78 SSW 5 7 30.03 1017 10 16 N/A
10:55 pm 22:55 Clear 77 25.1 69 20.4 75 75 SSW 5 7 30.03 1017 10 16 N/A
11:15 pm 23:15 Clear 77 25.1 69 20.3 75 75 SW 5 7 30.03 1017 10 16 N/A
11:35 pm 23:35 Clear 74 23.6 67 19.5 78 78 SW 3 6 30.03 1017 10 16 N/A
11:55 pm 23:55 Clear 74 23.6 68 19.8 79 79 SSW 5 7 30.03 1017 10 16 N/A

Powered by AerisWeather